Weather History for KBDH - January, 2014

Change the Weather History Date:

Friday, January 17, 2014

  Actual Average (KLJF) Record (KLJF)
Temperature  
Mean Temperature 5 °F -  
Max Temperature 15 °F 20 °F 42 °F (1961)
Min Temperature -5 °F 1 °F -32 °F (1977)
Degree Days  
Heating Degree Days 60    
Moisture  
Dew Point -3 °F    
Average Humidity 74    
Maximum Humidity 79    
Minimum Humidity 71    
Precipitation  
Precipitation 0.00 in - - ()
Sea Level Pressure  
Sea Level Pressure 29.97 in    
Wind  
Wind Speed 13 mph (WNW)    
Max Wind Speed 20 mph    
Max Gust Speed -    
Visibility 10 miles    
Events      
Averages and records for this station are not official NWS values.
T = Trace of Precipitation, MM = Missing Value Source: NWS Daily Summary

Daily Weather History Graph

Daily Weather History Graph

Search for Another Location

Airport or City:

Trip Planner

Search our weather history database for the weather conditions in past years. The results will help you decide how hot, cold, wet, or windy it might be!

Date:

Astronomy

Jan. 17, 2014 Rise Set
Actual Time 7:54 AM CST 5:07 PM CST
Civil Twilight 7:21 AM CST 5:40 PM CST
Nautical Twilight 6:45 AM CST 6:16 PM CST
Astronomical Twilight 6:10 AM CST 6:51 PM CST
Moon 7:01 PM CST (1/17) 8:16 AM CST (1/17)
Length of Visible Light 10h 18m
Length of Day
9h 13m
Full, 98% of the Moon is Illuminated
Jan 17
Full
Jan 23
Last Quarter
Jan 30
New
Feb 6
First Quarter
Feb 14
Full

Hourly Weather History & Observations

Time (CST) Temp. Windchill Dew Point Humidity Pressure Visibility Wind Dir Wind Speed Gust Speed Precip Events Conditions
12:01 AM 1.4 °F -18.2 °F -5.8 °F 72% 29.98 in 10.0 mi NW 16.1 mph - N/A   Scattered Clouds
12:21 AM 1.4 °F -18.2 °F -5.8 °F 72% 29.98 in 10.0 mi NW 16.1 mph - N/A   Clear
12:41 AM -0.4 °F -19.9 °F -5.8 °F 78% 29.98 in 10.0 mi NW 15.0 mph - N/A   Clear
1:01 AM -0.4 °F -19.2 °F -7.6 °F 72% 29.98 in 10.0 mi NW 13.8 mph - N/A   Clear
1:21 AM -0.4 °F -20.5 °F -7.6 °F 72% 29.99 in 10.0 mi NNW 16.1 mph - N/A   Clear
1:41 AM -0.4 °F -19.9 °F -7.6 °F 72% 29.99 in 10.0 mi NW 15.0 mph - N/A   Clear
2:01 AM -0.4 °F -22.3 °F -7.6 °F 72% 29.99 in 10.0 mi NW 19.6 mph - N/A   Clear
2:21 AM -0.4 °F -21.7 °F -7.6 °F 72% 30.00 in 10.0 mi NW 18.4 mph - N/A   Clear
2:41 AM -0.4 °F -22.3 °F -7.6 °F 72% 30.01 in 10.0 mi NW 19.6 mph - N/A   Clear
3:01 AM -0.4 °F -21.7 °F -7.6 °F 72% 30.01 in 7.0 mi NW 18.4 mph - N/A   Mostly Cloudy
3:21 AM -0.4 °F -21.7 °F -7.6 °F 72% 30.01 in 10.0 mi NW 18.4 mph - N/A   Mostly Cloudy
3:41 AM -2.2 °F -22.9 °F -7.6 °F 78% 30.01 in 10.0 mi NW 16.1 mph - N/A   Mostly Cloudy
4:01 AM -2.2 °F -23.5 °F -7.6 °F 78% 30.02 in 10.0 mi NW 17.3 mph - N/A   Scattered Clouds
4:21 AM -2.2 °F -22.2 °F -9.4 °F 71% 30.02 in 10.0 mi NW 15.0 mph - N/A   Clear
4:41 AM -2.2 °F -22.2 °F -9.4 °F 71% 30.03 in 10.0 mi NW 15.0 mph - N/A   Clear
5:01 AM -2.2 °F -22.2 °F -9.4 °F 71% 30.03 in 10.0 mi NW 15.0 mph - N/A   Clear
5:21 AM -2.2 °F -21.5 °F -9.4 °F 71% 30.04 in 10.0 mi NW 13.8 mph - N/A   Clear
5:41 AM -2.2 °F -21.5 °F -9.4 °F 71% 30.04 in 10.0 mi NW 13.8 mph - N/A   Clear
6:01 AM -2.2 °F -19.9 °F -9.4 °F 71% 30.05 in 10.0 mi NW 11.5 mph - N/A   Clear
6:21 AM -4.0 °F -23.0 °F -9.4 °F 78% 30.04 in 10.0 mi NW 12.7 mph - N/A   Clear
6:41 AM -4.0 °F -22.1 °F -9.4 °F 78% 30.05 in 10.0 mi NW 11.5 mph - N/A   Clear
7:01 AM -4.0 °F -23.7 °F -9.4 °F 78% 30.05 in 10.0 mi WNW 13.8 mph - N/A   Clear
7:21 AM -4.0 °F -25.2 °F -9.4 °F 78% 30.05 in 10.0 mi NW 16.1 mph - N/A   Clear
7:41 AM -4.0 °F -25.2 °F -11.2 °F 71% 30.06 in 10.0 mi NW 16.1 mph - N/A   Clear
8:01 AM -5.8 °F -24.4 °F -11.2 °F 77% 30.06 in 10.0 mi WNW 11.5 mph - N/A   Clear
8:21 AM -5.8 °F -26.0 °F -11.2 °F 77% 30.06 in 10.0 mi NW 13.8 mph - N/A   Clear
8:41 AM -5.8 °F -26.0 °F -11.2 °F 77% 30.05 in 10.0 mi NW 13.8 mph - N/A   Clear
9:01 AM -5.8 °F -24.4 °F -11.2 °F 77% 30.06 in 10.0 mi NW 11.5 mph - N/A   Clear
9:21 AM -4.0 °F -21.2 °F -11.2 °F 71% 30.07 in 10.0 mi WNW 10.4 mph - N/A   Clear
9:41 AM -4.0 °F -20.2 °F -11.2 °F 71% 30.07 in 10.0 mi WNW 9.2 mph - N/A   Clear
10:01 AM -2.2 °F -18.0 °F -9.4 °F 71% 30.07 in 10.0 mi WNW 9.2 mph - N/A   Clear
10:21 AM -2.2 °F -16.8 °F -9.4 °F 71% 30.08 in 10.0 mi WNW 8.1 mph - N/A   Clear
10:41 AM -2.2 °F -18.0 °F -9.4 °F 71% 30.08 in 10.0 mi WNW 9.2 mph - N/A   Clear
11:01 AM -0.4 °F -16.7 °F -7.6 °F 72% 30.08 in 10.0 mi NW 10.4 mph - N/A   Clear
11:21 AM -0.4 °F -14.7 °F -7.6 °F 72% 30.07 in 10.0 mi NW 8.1 mph - N/A   Clear
11:41 AM 1.4 °F -12.5 °F -5.8 °F 72% 30.07 in 10.0 mi WNW 8.1 mph - N/A   Clear
12:01 PM 1.4 °F -16.1 °F -5.8 °F 72% 30.07 in 10.0 mi WNW 12.7 mph - N/A   Clear
12:21 PM 3.2 °F -14.6 °F -2.2 °F 78% 30.06 in 10.0 mi West 13.8 mph - N/A   Clear
12:41 PM 3.2 °F -13.1 °F -2.2 °F 78% 30.06 in 10.0 mi West 11.5 mph - N/A   Clear
1:01 PM 3.2 °F -13.1 °F -2.2 °F 78% 30.04 in 10.0 mi WNW 11.5 mph - N/A   Clear
1:21 PM 6.8 °F -9.3 °F -0.4 °F 72% 30.02 in 10.0 mi WNW 12.7 mph - N/A   Clear
1:41 PM 6.8 °F -8.6 °F -0.4 °F 72% 30.01 in 10.0 mi NW 11.5 mph - N/A   Clear
2:01 PM 6.8 °F -7.8 °F -0.4 °F 72% 30.00 in 10.0 mi NW 10.4 mph - N/A   Clear
2:21 PM 6.8 °F -4.8 °F -0.4 °F 72% 30.00 in 10.0 mi NW 6.9 mph - N/A   Clear
2:41 PM 8.6 °F -3.7 °F 1.4 °F 73% 29.99 in 10.0 mi NW 8.1 mph - N/A   Clear
3:01 PM 8.6 °F -2.6 °F 1.4 °F 73% 29.99 in 10.0 mi WNW 6.9 mph - N/A   Clear
3:21 PM 8.6 °F - 1.4 °F 73% 29.99 in 10.0 mi North 1.2 mph - N/A   Clear
3:41 PM 8.6 °F - 1.4 °F 73% 29.99 in 10.0 mi West 1.2 mph - N/A   Clear
4:01 PM 8.6 °F - 1.4 °F 73% 29.98 in 10.0 mi WNW 1.2 mph - N/A   Clear
4:21 PM 8.6 °F 2.0 °F 1.4 °F 73% 29.98 in 10.0 mi West 3.5 mph - N/A   Clear
4:41 PM 8.6 °F 0.1 °F 1.4 °F 73% 29.98 in 10.0 mi West 4.6 mph - N/A   Clear
5:01 PM 8.6 °F 2.0 °F 1.4 °F 73% 29.98 in 10.0 mi West 3.5 mph - N/A   Clear
5:41 PM 6.8 °F - 1.4 °F 79% 29.96 in 10.0 mi Calm Calm - N/A   Clear
6:01 PM 6.8 °F - 1.4 °F 79% 29.95 in 10.0 mi SSE 2.3 mph - N/A   Clear
6:21 PM 6.8 °F -0.1 °F 1.4 °F 79% 29.92 in 10.0 mi SE 3.5 mph - N/A   Clear
6:41 PM 6.8 °F - 1.4 °F 79% 29.92 in 10.0 mi SSE 2.3 mph - N/A   Clear
7:01 PM 6.8 °F - 1.4 °F 79% 29.92 in 10.0 mi SE 2.3 mph - N/A   Clear
7:21 PM 8.6 °F -1.3 °F 1.4 °F 73% 29.91 in 10.0 mi SE 5.8 mph - N/A   Clear
7:41 PM 8.6 °F -1.3 °F 3.2 °F 79% 29.89 in 10.0 mi SE 5.8 mph - N/A   Clear
8:01 PM 8.6 °F -2.6 °F 3.2 °F 79% 29.88 in 10.0 mi SSE 6.9 mph - N/A   Clear
8:21 PM 10.4 °F -1.5 °F 5.0 °F 79% 29.86 in 10.0 mi SSE 8.1 mph - N/A   Clear
8:41 PM 10.4 °F -2.4 °F 5.0 °F 79% 29.83 in 10.0 mi SSE 9.2 mph - N/A   Clear
9:01 PM 12.2 °F -1.0 °F 5.0 °F 73% 29.81 in 10.0 mi SSE 10.4 mph - N/A   Clear
9:21 PM 12.2 °F -1.8 °F 6.8 °F 79% 29.79 in 10.0 mi SSE 11.5 mph - N/A   Clear
9:41 PM 12.2 °F -2.5 °F 6.8 °F 79% 29.76 in 10.0 mi SE 12.7 mph - N/A   Scattered Clouds
10:01 PM 14.0 °F 0.5 °F 6.8 °F 73% 29.76 in 10.0 mi SSE 11.5 mph - N/A   Mostly Cloudy
10:21 PM 14.0 °F 1.2 °F 6.8 °F 73% 29.73 in 10.0 mi SE 10.4 mph - N/A   Scattered Clouds
10:41 PM 14.0 °F -0.8 °F 6.8 °F 73% 29.71 in 5.0 mi SE 13.8 mph - N/A   Mostly Cloudy
11:01 PM 15.8 °F 1.4 °F 8.6 °F 73% 29.70 in 3.0 mi SSE 13.8 mph - N/A   Overcast
11:21 PM 15.8 °F 1.4 °F 8.6 °F 73% 29.67 in 4.0 mi SSE 13.8 mph - N/A   Overcast
11:41 PM 15.8 °F 1.4 °F 10.4 °F 79% 29.65 in 1.5 mi SSE 13.8 mph - N/A   Overcast